Location: Gilevgi
(36.8751°N, 30.0581°E)
Time: 20:37:54
(UTC+00:00)

NOSS 2-3 (E) - Visible Passes

Search period start: 16 March 2026 00:00
Search period end: 26 March 2026 00:00
Orbit: 492 x 1706 km, 63.3° (Epoch: 24 April)

Date Brightness Start Highest point End Pass type
(mag) Time Alt. Az. Time Alt. Az. Time Alt. Az.
16 Mar 4.4 01:50:17 70° WNW 01:50:59 79° WSW 01:58:44 10° SSE visible
16 Mar 6.3 03:38:21 10° W 03:40:56 12° WSW 03:43:45 10° SW visible
16 Mar 5.7 17:24:24 10° W 17:27:16 21° NW 17:30:08 10° N visible
17 Mar 5.8 00:59:21 36° ESE 00:59:21 36° ESE 01:04:03 10° SE visible
17 Mar 5.5 02:46:12 25° WSW 02:46:48 26° WSW 02:52:58 10° SSW visible
17 Mar 3.9 16:29:15 10° SW 16:32:58 54° NW 16:36:35 10° NNE visible
18 Mar 5.6 01:55:25 33° S 01:55:25 33° S 02:00:02 10° S visible
18 Mar 6.3 17:27:54 10° WNW 17:29:03 11° NW 17:30:13 10° NNW visible
19 Mar 6.8 01:04:42 15° SSE 01:04:42 15° SSE 01:06:00 10° SSE visible
19 Mar 6.6 02:51:34 11° SW 02:51:34 11° SW 02:52:18 10° SW visible
19 Mar 5.4 16:31:21 10° WSW 16:34:31 25° NW 16:37:39 10° N visible
21 Mar 6.1 16:34:14 10° WNW 16:36:11 14° NW 16:38:08 10° NNW visible
